{"data":{"norad_id":40974,"epoch":"2026-09-18T08:47:03.068736Z","epoch_age_seconds":206220,"freshness":"STALE","line1":"1 40974U 15058L   26261.36600774  .00012801  00000+0  57430-3 0  9996","line2":"2 40974  64.7569 231.8868 0086289   7.5240 352.7156 15.18160864129753","mean_motion":15.18160864,"eccentricity":0.0086289,"inclination_deg":64.7569,"raan_deg":231.8868,"arg_perigee_deg":7.524,"mean_anomaly_deg":352.7156,"bstar":0.0005743,"rev_number":12975,"period_min":94.851608557866,"perigee_km":451.94998271237,"apogee_km":570.84821883228,"semimajor_km":6889.5361007723,"source":"CELESTRAK","updated_at":"2026-09-20T09:00:48.030107Z"}}